When you browse on this site, cookies collect data to enhance your experience and personalize the content and advertising you see.
Visit our Privacy Policy to learn more. By continuing to use the site, you agree to this use of cookies and data.
  • In Deutschland
  • Länderverzeichnis
  • Für 7 Tage
  • Wassertemperatur
  • Wetterkarte
  • Widgets
  • user-avatar
    Anmelden

    Stündliche Wetter Sankt Pölten

    Heute, 4 Juni, Donnerstag

    Zeit Temperatur Niederschläge Wind Luftdruck Luftfeuchtigkeit
    00:00 +14°C° 0 mm 1 m/S 725 mmHg 88%
    01:00 +13°C° 0 mm 1 m/S 725 mmHg 89%
    02:00 +13°C° 0 mm 1 m/S 725 mmHg 89%
    03:00 +12°C° 0 mm 1 m/S 724 mmHg 90%
    04:00 +12°C° 0 mm 1 m/S 724 mmHg 90%
    05:00 +14°C° 0 mm 1 m/S 724 mmHg 87%
    06:00 +15°C° 0 mm 1 m/S 724 mmHg 84%
    07:00 +16°C° 0 mm 0 m/S 723 mmHg 82%
    08:00 +19°C° 0 mm 1 m/S 723 mmHg 75%
    09:00 +21°C° 0 mm 1 m/S 723 mmHg 69%
    10:00 +21°C° 0 mm 2 m/S 723 mmHg 62%
    11:00 +23°C° 0.1 mm 2 m/S 723 mmHg 61%
    12:00 +24°C° 0.1 mm 2 m/S 722 mmHg 59%
    13:00 +25°C° 0.1 mm 2 m/S 722 mmHg 58%
    14:00 +24°C° 0.3 mm 2 m/S 721 mmHg 62%
    15:00 +24°C° 0.3 mm 2 m/S 721 mmHg 67%
    16:00 +24°C° 0.3 mm 2 m/S 720 mmHg 71%
    17:00 +23°C° 0.2 mm 2 m/S 720 mmHg 76%
    18:00 +20°C° 0.2 mm 2 m/S 720 mmHg 81%
    19:00 +20°C° 0.2 mm 1 m/S 719 mmHg 85%
    20:00 +18°C° 0.3 mm 3 m/S 720 mmHg 88%
    21:00 +15°C° 0.3 mm 4 m/S 720 mmHg 91%
    22:00 +14°C° 0.3 mm 6 m/S 720 mmHg 94%
    23:00 +14°C° 0 mm 5 m/S 720 mmHg 94%

    Morgen, 5 Juni, Freitag

    Zeit Temperatur Niederschläge Wind Luftdruck Luftfeuchtigkeit
    00:00 +13°C° 0 mm 4 m/S 720 mmHg 94%
    01:00 +14°C° 0 mm 2 m/S 721 mmHg 94%
    02:00 +14°C° 1.4 mm 2 m/S 721 mmHg 95%
    03:00 +14°C° 1.4 mm 2 m/S 720 mmHg 96%
    04:00 +13°C° 1.4 mm 2 m/S 720 mmHg 97%
    05:00 +13°C° 0.4 mm 2 m/S 721 mmHg 97%
    06:00 +14°C° 0.4 mm 2 m/S 721 mmHg 96%
    07:00 +14°C° 0.4 mm 2 m/S 721 mmHg 96%
    08:00 +14°C° 0.2 mm 2 m/S 722 mmHg 94%
    09:00 +14°C° 0.2 mm 3 m/S 722 mmHg 93%
    10:00 +14°C° 0.2 mm 3 m/S 723 mmHg 91%
    11:00 +14°C° 0.6 mm 3 m/S 723 mmHg 91%
    12:00 +14°C° 0.6 mm 4 m/S 723 mmHg 92%
    13:00 +13°C° 0.6 mm 4 m/S 724 mmHg 92%
    14:00 +14°C° 0.6 mm 4 m/S 724 mmHg 90%
    15:00 +14°C° 0.6 mm 3 m/S 724 mmHg 89%
    16:00 +15°C° 0.6 mm 2 m/S 725 mmHg 87%
    17:00 +15°C° 0 mm 2 m/S 725 mmHg 88%
    18:00 +15°C° 0 mm 2 m/S 725 mmHg 88%
    19:00 +15°C° 0 mm 1 m/S 725 mmHg 88%
    20:00 +14°C° 0 mm 1 m/S 726 mmHg 89%
    21:00 +13°C° 0 mm 2 m/S 726 mmHg 90%
    22:00 +12°C° 0 mm 2 m/S 727 mmHg 91%
    23:00 +12°C° 0 mm 2 m/S 727 mmHg 90%

    übermorgen, 6 Juni, Samstag

    Zeit Temperatur Niederschläge Wind Luftdruck Luftfeuchtigkeit
    00:00 +11°C° 0 mm 1 m/S 727 mmHg 89%
    01:00 +11°C° 0 mm 1 m/S 727 mmHg 88%
    02:00 +11°C° 0 mm 1 m/S 727 mmHg 89%
    03:00 +11°C° 0 mm 1 m/S 728 mmHg 89%
    04:00 +10°C° 0 mm 1 m/S 728 mmHg 90%
    05:00 +12°C° 0 mm 1 m/S 728 mmHg 84%
    06:00 +14°C° 0 mm 1 m/S 728 mmHg 79%
    07:00 +15°C° 0 mm 0 m/S 729 mmHg 73%
    08:00 +19°C° 0 mm 1 m/S 729 mmHg 68%
    09:00 +20°C° 0 mm 1 m/S 729 mmHg 64%
    10:00 +20°C° 0 mm 2 m/S 730 mmHg 59%
    11:00 +21°C° 0 mm 1 m/S 730 mmHg 63%
    12:00 +20°C° 0 mm 1 m/S 729 mmHg 67%
    13:00 +20°C° 0 mm 1 m/S 729 mmHg 71%
    14:00 +20°C° 0 mm 1 m/S 729 mmHg 68%
    15:00 +21°C° 0 mm 1 m/S 729 mmHg 65%
    16:00 +22°C° 0 mm 1 m/S 729 mmHg 62%
    17:00 +21°C° 0 mm 1 m/S 729 mmHg 70%
    18:00 +20°C° 0 mm 1 m/S 729 mmHg 77%
    19:00 +19°C° 0 mm 1 m/S 729 mmHg 84%
    20:00 +18°C° 0.2 mm 1 m/S 729 mmHg 86%
    21:00 +16°C° 0.2 mm 1 m/S 730 mmHg 89%
    22:00 +16°C° 0.2 mm 1 m/S 730 mmHg 92%
    23:00 +15°C° 0.8 mm 1 m/S 730 mmHg 93%

    7 Juni, Sonntag

    Zeit Temperatur Niederschläge Wind Luftdruck Luftfeuchtigkeit
    00:00 +15°C° 0.8 mm 1 m/S 730 mmHg 95%
    01:00 +15°C° 0.8 mm 2 m/S 730 mmHg 97%
    02:00 +15°C° 0.1 mm 1 m/S 730 mmHg 96%
    03:00 +14°C° 0.1 mm 1 m/S 730 mmHg 96%
    04:00 +14°C° 0.1 mm 1 m/S 730 mmHg 95%
    05:00 +15°C° 0 mm 1 m/S 730 mmHg 94%
    06:00 +15°C° 0 mm 1 m/S 730 mmHg 93%
    07:00 +15°C° 0 mm 1 m/S 731 mmHg 92%
    08:00 +16°C° 0 mm 1 m/S 731 mmHg 90%
    09:00 +16°C° 0 mm 0 m/S 731 mmHg 88%
    10:00 +17°C° 0 mm 0 m/S 731 mmHg 86%
    11:00 +18°C° 0 mm 0 m/S 731 mmHg 76%
    12:00 +22°C° 0 mm 1 m/S 730 mmHg 67%
    13:00 +24°C° 0 mm 1 m/S 730 mmHg 58%
    14:00 +24°C° 0 mm 1 m/S 730 mmHg 58%
    15:00 +24°C° 0 mm 2 m/S 730 mmHg 58%
    16:00 +24°C° 0 mm 2 m/S 730 mmHg 58%
    17:00 +21°C° 0.2 mm 2 m/S 730 mmHg 69%
    18:00 +19°C° 0.2 mm 2 m/S 730 mmHg 79%
    19:00 +17°C° 0.2 mm 3 m/S 730 mmHg 89%
    20:00 +15°C° 0.5 mm 2 m/S 730 mmHg 92%
    21:00 +14°C° 0.5 mm 2 m/S 731 mmHg 95%
    22:00 +13°C° 0.5 mm 2 m/S 731 mmHg 97%
    23:00 +13°C° 0.7 mm 2 m/S 731 mmHg 97%

    8 Juni, Montag

    Zeit Temperatur Niederschläge Wind Luftdruck Luftfeuchtigkeit
    00:00 +12°C° 0.7 mm 2 m/S 731 mmHg 98%
    01:00 +12°C° 0.7 mm 2 m/S 731 mmHg 98%
    02:00 +12°C° 1.4 mm 2 m/S 731 mmHg 98%
    03:00 +12°C° 1.4 mm 2 m/S 731 mmHg 98%
    04:00 +12°C° 1.4 mm 2 m/S 731 mmHg 98%
    05:00 +12°C° 0.3 mm 2 m/S 731 mmHg 98%
    06:00 +12°C° 0.3 mm 2 m/S 731 mmHg 98%
    07:00 +12°C° 0.3 mm 2 m/S 732 mmHg 97%
    08:00 +12°C° 0.1 mm 2 m/S 732 mmHg 96%
    09:00 +12°C° 0.1 mm 2 m/S 732 mmHg 96%
    10:00 +13°C° 0.1 mm 2 m/S 733 mmHg 95%
    11:00 +13°C° 0.1 mm 2 m/S 733 mmHg 93%
    12:00 +13°C° 0.1 mm 2 m/S 733 mmHg 91%
    13:00 +12°C° 0.1 mm 3 m/S 733 mmHg 89%
    14:00 +13°C° 0 mm 2 m/S 733 mmHg 88%
    15:00 +14°C° 0 mm 2 m/S 733 mmHg 87%
    16:00 +14°C° 0 mm 2 m/S 733 mmHg 87%
    17:00 +13°C° 0 mm 2 m/S 733 mmHg 88%
    18:00 +13°C° 0 mm 2 m/S 733 mmHg 89%
    19:00 +13°C° 0 mm 2 m/S 733 mmHg 90%
    20:00 +13°C° 0 mm 1 m/S 733 mmHg 91%
    21:00 +12°C° 0 mm 1 m/S 733 mmHg 91%
    22:00 +12°C° 0 mm 1 m/S 734 mmHg 91%
    23:00 +12°C° 0.1 mm 1 m/S 734 mmHg 92%

    9 Juni, Dienstag

    Zeit Temperatur Niederschläge Wind Luftdruck Luftfeuchtigkeit
    00:00 +12°C° 0.1 mm 2 m/S 734 mmHg 92%
    01:00 +12°C° 0.1 mm 2 m/S 734 mmHg 93%
    02:00 +12°C° 0.1 mm 2 m/S 734 mmHg 93%
    03:00 +12°C° 0.1 mm 1 m/S 734 mmHg 93%
    04:00 +12°C° 0.1 mm 1 m/S 733 mmHg 93%
    05:00 +12°C° 0.4 mm 1 m/S 734 mmHg 94%
    06:00 +12°C° 0.4 mm 1 m/S 734 mmHg 95%
    07:00 +12°C° 0.4 mm 1 m/S 734 mmHg 96%
    08:00 +12°C° 1 mm 1 m/S 735 mmHg 96%
    09:00 +12°C° 1 mm 1 m/S 735 mmHg 97%
    10:00 +12°C° 1 mm 2 m/S 735 mmHg 97%
    11:00 +12°C° 0.2 mm 2 m/S 735 mmHg 96%
    12:00 +13°C° 0.2 mm 2 m/S 735 mmHg 96%
    13:00 +13°C° 0.2 mm 2 m/S 735 mmHg 95%
    14:00 +13°C° 0.1 mm 2 m/S 735 mmHg 94%
    15:00 +13°C° 0.1 mm 2 m/S 735 mmHg 92%
    16:00 +14°C° 0.1 mm 2 m/S 735 mmHg 91%
    17:00 +14°C° 0 mm 2 m/S 735 mmHg 91%
    18:00 +13°C° 0 mm 2 m/S 735 mmHg 90%
    19:00 +13°C° 0 mm 2 m/S 735 mmHg 90%
    20:00 +13°C° 0 mm 2 m/S 735 mmHg 90%
    21:00 +13°C° 0 mm 2 m/S 735 mmHg 90%
    22:00 +12°C° 0 mm 2 m/S 736 mmHg 89%
    23:00 +12°C° 0 mm 2 m/S 735 mmHg 89%
    Mehr zeigen